Tracking 19562 objects as of 25-Mar-2019
HD Live streaming from Space Station
objects crossing your sky now

COSMOS 1030 DEB

Track COSMOS 1030 DEB now!


NORAD ID: 39447
Int'l Code: 1978-083T
Perigee: 4,121.8 km
Apogee: 36,308.8 km
Inclination: 68.0 °
Period: 719.0 minutes
Semi major axis: 26586 km
RCS: Unknown
Launch date: September 6, 1978
Source: Commonwealth of Independent States (former USSR) (CIS)
Launch site: PLESETSK MISSILE AND SPACE COMPLEX (PKMTR)

Note: This is SATELLITE DEBRIS
aabbcc
Your satellite tracking list
Your tracking list is empty




NASA's NSSDC Master Catalog

Two Line Element Set (TLE):
1 39447U 78083T   19083.47651742  .00000550  00000-0  00000+0 0  9999
2 39447  68.0050  52.1546 6053304  36.1197 352.3856  2.00269920 39069
Source of the keplerian elements: AFSPC